User: anonymous
Location: Myra
(43.4160°N, 88.0960°W)
Time: 19:07:24
(UTC-05:00)
Language:

SL-8 R/B - Orbit

View from above orbital plane
View from above orbital plane
View from above satellite
View from above satellite

Ground track
Ground track

The orbit data is extracted from the following two-line orbital elements,

1 33066U 08031G   14110.14954067  .00000799  00000-0  16875-3 0  7604
2 33066 048.4430 105.9616 0008416 279.8996 202.7464 14.68757101313068
Epoch (UTC): 20 April 2014 03:35:20
Eccentricity: 0.0008416
inclination: 48.4430°
perigee height: 659 km
apogee height: 671 km
right ascension of ascending node: 105.9616°
argument of perigee: 279.8996°
revolutions per day: 14.68757101
mean anomaly at epoch: 202.7464°
orbit number at epoch: 31306

The dashed part of the orbit path shows where the satellite is in the earth's shadow,  

DLR